Theta_e
324 326 327 326 326 330 335 338 335 334 334 333 333 333 332 331 334 335 334 332 332 334 338 342 344 343 343 343 343 344 341 340 338 339 340 341 341 341 339 342 340 340
324 325 326 328 328 329 332 337 339 338 337 337 334 333 333 333 333 333 333 333 335 336 336 341 345 344 343 343 343 343 342 342 339 340 340 341 341 341 338 339 341 343
323 324 324 325 326 326 327 330 336 339 339 339 339 340 340 340 340 339 337 336 338 339 340 343 343 344 344 343 343 343 342 341 340 339 339 339 340 339 339 338 338 341
322 323 323 324 325 326 327 327 328 334 339 340 340 341 342 341 342 346 339 340 339 338 341 344 345 345 344 343 343 343 343 341 341 341 338 339 340 339 337 337 336 337
321 322 323 323 324 326 327 326 325 327 332 338 340 342 341 341 341 342 342 342 342 342 343 344 345 345 345 344 343 342 343 342 341 340 339 338 340 339 338 338 336 335
320 320 321 322 323 325 326 325 325 325 326 330 338 341 341 342 342 340 343 341 343 344 344 344 344 345 345 344 343 342 343 342 341 339 338 338 338 339 339 339 337 335
319 319 320 322 322 323 324 326 327 326 325 327 331 338 340 340 342 337 337 344 344 344 343 343 343 344 345 344 342 341 342 342 342 340 337 337 338 338 339 339 338 336
317 319 320 320 321 323 323 323 325 326 327 327 327 330 338 339 340 340 339 342 342 343 343 343 343 343 344 343 341 340 341 342 341 340 338 336 337 336 338 340 339 337
317 317 318 319 321 321 322 323 324 325 326 326 327 327 332 338 339 340 338 338 339 341 341 342 342 342 344 343 341 340 340 341 341 339 338 337 336 336 336 338 338 337
317 317 318 318 318 320 321 322 323 324 326 326 326 328 328 333 337 339 340 338 338 338 340 340 341 341 343 343 342 342 341 340 340 339 339 338 337 336 335 336 337 337
316 317 317 317 317 318 320 322 323 323 324 325 325 326 328 330 333 337 338 338 336 333 335 338 338 339 339 340 341 341 341 341 340 339 339 338 338 337 338 336 336 337
315 316 316 316 317 318 318 320 321 322 323 324 325 325 326 329 331 333 336 337 337 336 334 334 336 336 336 338 340 341 342 342 341 340 340 340 339 338 337 337 336 337
314 314 315 316 316 317 319 319 319 321 321 321 324 325 325 326 330 331 333 335 337 338 336 335 334 334 335 337 339 341 342 342 342 341 340 340 339 338 338 337 336 336
313 314 315 315 316 317 317 318 319 320 321 322 322 323 324 325 327 330 331 333 335 337 338 336 335 333 333 334 337 340 342 342 341 340 340 339 339 338 338 337 337 336
313 314 315 316 316 316 316 317 317 318 320 321 321 322 324 325 327 328 330 331 333 337 338 337 335 333 333 333 333 338 341 341 341 340 340 339 338 338 338 339 337 336
312 313 314 315 315 315 316 316 317 318 318 320 320 321 322 323 325 327 327 329 331 333 336 336 336 334 330 323 323 335 340 341 341 341 340 338 337 337 337 337 337 336
312 312 313 313 315 315 316 316 316 317 317 318 319 321 321 322 323 324 326 327 329 332 332 334 335 333 318 309 308 314 335 340 340 341 340 339 338 337 335 335 335 336
313 314 314 314 315 315 315 315 316 316 316 317 318 319 321 322 322 323 324 326 329 329 329 330 333 325 310 305 305 306 320 340 341 341 340 339 338 337 336 335 335 334
312 313 315 316 316 316 316 316 315 315 315 315 316 318 320 321 321 322 323 325 328 327 327 329 330 317 310 308 303 303 310 328 341 341 339 339 338 337 336 336 335 334
312 313 315 316 317 317 316 316 315 315 315 316 317 318 318 320 321 322 323 325 329 329 329 330 331 314 306 306 304 301 305 319 340 340 339 339 338 338 337 336 336 334
312 313 315 316 317 317 316 315 315 315 315 316 316 317 318 318 319 321 326 328 329 329 327 329 329 314 306 302 302 302 303 313 340 340 339 338 338 338 338 337 336 336
313 315 316 317 316 316 315 315 315 315 315 316 317 318 319 319 321 325 326 327 328 327 327 327 329 310 306 304 302 301 304 320 335 338 338 338 337 338 338 339 338 337
315 316 316 316 317 316 315 315 315 315 316 317 316 317 318 321 323 321 326 327 327 325 324 325 326 312 305 304 302 301 303 323 333 335 335 336 336 337 337 338 338 337
316 316 316 317 316 316 315 316 318 318 318 320 319 319 319 322 323 322 325 327 326 326 326 325 326 319 305 303 301 300 308 324 330 333 333 334 335 336 337 337 337 333
316 316 317 316 316 317 317 317 318 319 321 321 320 319 319 319 321 321 322 323 325 326 325 325 327 322 303 301 299 299 305 322 330 331 331 332 333 334 335 336 336 333
315 315 317 317 315 316 318 319 321 322 320 322 320 319 319 320 319 320 320 321 321 321 325 325 324 323 317 302 300 299 298 313 328 329 328 330 332 331 332 333 334 336
Wind_Speed
6 5 4 5 6 6 6 5 7 8 7 8 7 9 10 11 11 15 14 15 15 12 10 10 8 8 8 9 8 7 5 7 7 6 6 7 6 6 7 7 6 7
7 7 7 6 5 5 6 6 7 9 10 12 12 13 13 16 21 22 18 16 11 11 12 12 8 9 10 9 9 9 7 5 8 6 7 8 7 7 7 7 6 5
6 6 7 8 7 7 8 8 7 7 8 9 12 12 13 13 10 13 12 12 11 11 12 11 10 9 10 9 9 9 8 7 6 7 8 10 8 8 8 7 6 6
7 6 7 8 8 9 8 8 9 8 7 7 9 9 10 9 9 11 12 13 11 11 10 11 11 11 11 10 10 9 9 9 6 6 7 7 8 9 8 7 7 7
7 6 5 7 8 9 8 9 9 9 9 9 9 10 10 10 10 10 11 12 11 11 11 12 12 11 11 10 10 9 9 9 8 7 7 8 7 8 8 8 9 10
8 8 8 7 7 8 8 10 10 10 10 10 10 9 10 10 10 11 11 12 12 12 13 12 12 11 11 11 10 9 8 9 9 9 9 9 8 8 7 8 9 10
10 9 10 9 9 9 10 9 9 9 10 9 10 10 10 10 10 10 12 11 14 13 13 13 13 12 11 11 10 10 9 9 10 11 11 9 8 9 10 9 10 10
12 11 10 8 9 9 10 10 10 10 9 10 11 12 10 11 11 11 12 10 13 14 13 13 13 13 12 10 11 12 11 9 10 11 11 11 9 10 10 9 8 10
9 10 10 12 11 9 10 10 10 10 11 11 11 10 11 11 10 11 12 11 12 13 14 14 14 13 11 11 11 13 13 11 11 11 11 10 11 11 11 9 10 10
10 9 11 11 12 10 10 10 10 10 10 12 12 10 12 11 11 12 12 12 13 12 14 14 14 13 12 12 13 13 13 13 13 12 11 11 10 11 11 10 11 11
11 11 11 12 12 11 13 11 10 10 10 12 12 12 12 12 11 12 13 11 10 11 13 13 13 13 13 12 12 12 13 13 13 13 12 12 12 11 11 11 11 12
12 11 12 12 12 12 13 13 12 11 11 11 12 14 13 12 13 11 12 14 12 12 11 13 13 13 14 13 14 13 12 12 12 12 12 12 11 10 10 9 10 11
12 12 12 12 12 11 11 12 12 12 12 13 12 13 14 13 13 14 12 12 14 13 11 14 13 13 13 13 13 14 13 13 12 12 12 11 12 12 12 10 8 9
13 13 13 13 12 12 13 13 12 12 12 12 13 14 14 15 14 14 14 12 12 13 13 13 14 13 12 12 12 13 12 12 12 11 12 12 12 13 12 11 10 9
14 13 12 12 14 14 14 13 13 13 12 12 13 13 13 14 14 14 14 15 13 12 13 13 12 11 10 11 11 13 12 12 12 12 12 12 12 12 11 7 4 5
14 13 14 15 14 15 15 14 13 14 13 13 13 14 14 14 15 15 14 14 14 14 12 11 11 9 12 16 14 10 12 11 11 11 11 11 11 11 12 12 11 8
14 14 14 16 15 15 15 15 15 13 13 14 13 13 14 14 14 15 15 14 13 12 12 10 9 7 12 14 16 17 14 13 12 11 10 11 11 12 13 13 12 10
14 14 14 15 15 16 16 15 14 14 14 13 13 13 13 12 14 14 14 14 8 9 12 11 10 7 7 10 14 17 16 13 12 10 10 10 10 12 12 12 13 12
15 15 15 14 15 16 16 15 15 15 15 14 15 13 11 13 14 14 14 14 13 12 12 12 11 14 11 3 11 16 18 16 10 11 11 10 10 11 12 13 13 12
16 17 17 16 13 14 14 15 14 15 14 13 12 12 12 13 14 14 14 15 11 9 9 6 5 6 7 4 5 11 18 16 10 11 10 11 11 11 11 12 13 14
17 18 18 17 12 10 12 13 14 13 13 13 12 12 12 13 14 15 13 11 9 9 9 9 7 8 8 10 10 10 14 14 9 9 9 9 10 10 11 11 12 13
17 17 16 14 12 9 10 12 13 14 13 12 11 11 11 11 13 11 12 10 7 7 8 10 9 15 15 14 14 14 19 13 11 9 9 9 10 11 11 10 11 12
18 17 15 12 9 9 9 10 10 11 11 10 11 12 12 10 5 5 7 8 9 9 11 11 8 12 16 17 16 17 11 10 12 10 10 10 10 11 11 11 10 12
17 16 12 12 9 9 10 9 8 7 3 1 1 5 5 5 6 8 9 9 10 11 12 10 10 13 18 16 16 17 15 13 11 10 11 11 11 11 10 10 12 16
14 15 14 11 9 7 8 11 8 7 5 5 6 6 6 5 3 3 6 8 8 8 14 13 9 5 5 5 8 11 13 11 12 11 11 11 11 10 10 9 9 11
13 15 14 10 10 12 10 9 6 3 6 7 5 5 6 6 6 7 8 5 3 7 4 2 4 4 7 11 6 3 10 11 9 9 10 12 11 10 9 8 9 8
Wind_Direction
291 287 273 274 278 282 273 223 205 205 206 207 191 210 216 223 215 211 202 215 208 218 256 259 214 203 207 216 225 237 231 204 204 199 200 201 206 196 199 193 186 179
290 297 303 300 296 288 283 265 229 213 210 203 203 206 212 211 199 196 188 201 206 208 213 228 223 210 210 214 213 221 231 212 202 197 198 201 207 203 206 204 199 183
261 273 276 277 272 273 276 281 274 248 225 218 216 214 213 210 190 177 186 186 190 204 216 217 220 219 213 212 214 219 221 226 211 201 198 202 199 203 205 205 206 201
278 257 265 267 264 265 265 266 271 271 260 243 234 227 223 224 207 176 181 187 188 197 210 211 212 216 215 213 210 213 217 221 221 203 205 201 199 200 202 198 205 209
287 285 273 269 267 262 263 263 262 265 263 257 250 238 231 228 216 198 179 182 184 193 203 206 211 213 211 212 211 210 209 215 219 214 207 207 202 198 199 195 200 207
259 261 259 263 274 272 255 251 257 260 263 264 254 247 236 228 223 221 194 186 187 190 197 203 208 209 207 210 212 215 206 210 213 218 216 211 206 199 200 199 200 204
287 263 255 251 247 257 273 271 261 255 256 257 261 249 243 236 230 231 232 192 187 190 194 199 204 204 204 204 209 211 213 209 210 213 219 216 210 206 202 199 200 204
297 303 291 264 252 249 249 260 270 271 264 257 254 258 251 246 239 225 223 200 192 189 194 196 197 203 202 201 204 210 210 210 209 211 216 218 214 216 205 201 199 203
284 287 292 292 272 248 249 253 256 261 268 265 259 254 252 246 236 235 228 230 217 200 199 198 197 201 203 198 201 204 208 209 210 210 214 216 214 214 213 203 204 204
283 276 278 281 286 285 262 247 252 256 256 263 264 257 250 246 241 240 234 219 227 221 207 199 197 200 196 196 200 205 207 209 209 209 212 217 220 216 214 209 206 207
283 279 272 270 270 271 274 265 253 253 255 256 260 260 252 248 242 237 239 223 226 225 233 219 206 200 197 198 202 205 208 210 208 206 208 212 216 219 217 212 208 208
293 286 280 274 269 268 269 270 259 249 254 256 253 258 259 249 245 238 231 236 219 223 212 237 220 203 204 200 200 202 204 208 209 207 205 206 210 216 225 221 217 211
288 285 281 279 273 270 265 260 262 257 249 254 256 254 255 257 247 242 241 233 231 223 213 226 231 217 202 199 197 198 201 204 208 208 207 207 211 214 220 232 235 228
286 284 281 276 273 267 262 261 258 256 246 244 252 255 254 253 252 245 240 239 231 225 218 220 222 220 209 203 198 194 195 202 204 204 207 210 210 212 215 226 235 240
288 284 281 277 273 271 265 262 261 259 254 244 241 248 252 254 254 251 243 239 239 231 224 218 225 228 216 206 203 195 192 196 198 202 205 208 209 210 211 199 196 212
279 277 275 274 272 270 269 264 257 253 253 249 242 245 250 248 251 253 249 241 237 231 227 226 225 220 224 221 205 197 191 191 196 200 202 206 207 205 206 208 212 215
276 267 260 260 262 265 265 263 259 256 251 251 249 244 245 249 249 248 244 244 238 223 227 230 231 231 227 224 217 200 188 192 192 195 197 201 204 205 208 210 216 218
276 266 261 261 261 262 260 255 256 250 251 252 250 247 246 247 248 249 247 242 220 202 219 224 230 250 292 297 237 207 192 189 190 190 192 197 204 208 211 212 214 217
294 286 274 259 246 243 248 250 250 249 247 248 247 247 251 249 245 246 246 245 229 208 218 227 226 235 237 248 311 266 205 188 191 189 187 194 201 207 211 212 215 218
300 293 286 281 256 234 237 242 248 250 246 246 247 242 244 249 249 245 242 238 225 208 205 195 198 138 128 181 229 259 244 198 193 187 188 194 199 204 213 216 216 219
301 295 288 286 275 233 232 241 245 252 247 245 247 244 241 243 246 247 235 223 207 201 203 214 208 219 209 191 196 200 248 252 199 188 196 201 203 207 212 216 220 221
306 303 290 283 276 253 230 233 236 243 248 246 249 248 247 247 249 249 233 206 185 192 208 212 213 200 211 210 211 203 202 202 225 207 203 204 209 210 212 214 219 219
314 310 302 292 282 279 262 243 239 237 240 242 248 251 250 247 217 216 225 197 185 188 208 217 218 202 212 213 207 208 208 221 214 217 215 213 213 213 213 216 218 219
323 333 317 305 302 299 282 262 235 233 246 89 301 270 278 278 235 251 243 216 196 194 202 210 211 199 201 213 207 203 197 207 217 216 218 220 222 218 216 217 217 213
331 333 344 331 309 277 276 266 239 220 183 184 190 202 200 196 193 235 272 276 254 231 204 208 216 204 181 247 246 216 203 218 216 212 215 221 223 225 220 221 218 212
336 335 340 348 339 317 300 290 282 208 202 205 182 186 184 180 164 155 189 208 289 303 328 49 70 97 122 128 135 3 298 291 246 218 226 224 222 224 224 217 223 224